Theta_e
317 321 321 321 320 319 319 320 319 320 319 315 314 312 305 303 304 305 310 320 322 326 325 324 327 330 330 335 339 337 337 337 336 336 334 335 336 334 335 337 336 335 336 334 336 340 346 339 339 343 339 338 337 337
317 320 321 321 320 319 319 319 319 319 319 316 313 312 306 303 303 304 315 311 319 325 324 323 323 324 325 328 331 336 338 338 338 341 341 339 338 338 339 338 335 336 335 336 335 347 339 337 334 336 335 336 335 332
318 319 320 319 319 319 318 317 318 318 318 316 313 312 306 303 303 305 308 310 318 325 327 328 328 327 326 325 328 333 334 333 336 335 338 338 337 334 337 338 334 336 337 336 334 340 337 334 335 335 333 331 331 330
318 319 319 319 318 318 317 317 316 315 315 314 312 311 305 303 303 305 308 308 314 324 330 328 328 328 327 326 328 329 329 330 331 333 336 336 336 334 333 334 333 337 336 336 335 339 336 337 335 332 333 332 331 330
318 318 318 317 317 316 316 316 315 314 311 310 310 309 304 302 303 306 307 309 315 322 329 327 324 327 327 327 326 327 328 328 331 334 334 334 332 332 332 331 333 334 336 335 339 342 339 337 333 333 334 331 329 330
317 317 317 316 315 315 316 315 314 313 311 309 308 306 303 302 304 312 324 320 320 324 328 329 326 328 327 326 326 327 329 328 329 331 333 331 335 335 334 334 335 329 333 338 341 337 335 333 333 333 332 329 327 326
316 316 316 315 315 315 314 314 313 312 309 307 306 304 302 303 306 313 321 321 317 320 328 330 326 327 328 328 327 328 328 329 331 332 331 331 335 334 334 335 336 334 334 335 336 336 335 333 333 331 328 326 325 324
314 314 314 314 314 313 313 312 311 309 308 305 305 303 303 306 310 311 311 308 311 318 326 330 332 331 328 330 330 328 331 330 332 332 332 334 335 336 336 336 335 335 333 333 335 335 334 331 329 328 326 325 326 323
314 314 314 313 312 312 311 309 307 306 305 304 303 304 309 313 316 321 319 316 316 322 331 330 328 333 329 331 330 331 332 335 332 333 332 332 336 337 339 333 336 335 333 334 333 333 332 331 330 328 326 324 323 320
313 313 312 311 310 307 306 305 304 304 304 305 307 317 322 322 319 318 318 324 323 326 327 331 332 333 330 332 332 335 333 333 336 335 334 335 334 335 340 337 339 335 333 331 335 335 333 331 329 327 323 320 319 319
310 309 308 307 305 304 304 303 303 305 312 314 318 323 320 321 321 324 328 325 326 327 325 324 324 327 328 334 333 334 337 335 335 333 337 337 335 335 338 341 338 335 332 333 335 333 332 330 327 324 321 319 318 319
306 305 305 304 304 303 303 303 302 309 311 308 309 310 317 325 326 328 329 331 330 330 331 326 326 324 328 334 337 336 333 336 337 336 337 337 341 344 340 340 338 334 333 332 330 329 329 327 325 322 320 318 318 318
304 304 304 304 303 303 303 303 302 303 304 312 312 320 323 325 322 327 329 330 332 330 331 331 330 329 332 334 336 337 335 336 334 338 338 339 345 341 337 336 335 334 331 329 327 325 323 321 319 318 317 316 316 318
302 302 302 302 302 302 302 302 303 305 311 315 318 316 324 325 326 327 328 330 330 332 331 331 331 328 334 333 335 338 336 333 335 336 335 345 344 343 338 335 334 332 330 328 326 323 322 321 319 318 316 315 315 315
301 301 301 303 302 302 303 303 305 307 310 316 318 320 321 323 325 325 327 327 328 332 331 330 331 329 333 333 334 333 334 336 335 333 340 345 344 340 339 337 333 331 329 327 325 322 321 319 318 319 317 316 315 314
299 301 303 303 302 302 304 305 306 308 309 313 315 321 323 324 324 324 325 330 332 329 330 332 330 331 332 333 333 335 333 333 338 348 346 344 342 341 339 336 332 330 329 327 325 323 321 319 319 318 318 318 317 316
299 303 302 302 302 303 304 306 307 309 311 310 312 315 317 319 322 323 325 324 324 331 335 333 332 333 332 333 334 333 333 336 344 343 342 342 343 342 338 334 332 330 330 328 325 323 320 318 320 319 320 319 319 317
302 300 300 300 300 304 304 305 307 308 309 310 313 317 318 319 320 321 321 321 326 330 332 333 335 334 333 332 333 332 338 341 341 341 342 344 341 339 336 335 334 332 329 327 325 322 319 319 320 319 320 319 320 319
301 300 300 299 300 301 305 305 305 309 310 311 313 315 317 318 319 320 319 320 320 329 332 331 334 335 335 337 335 335 336 341 342 342 342 341 338 336 335 334 333 331 330 327 323 322 320 319 320 319 321 320 321 319
299 300 300 299 299 302 305 307 305 308 311 313 314 316 317 317 318 318 318 319 319 325 330 334 333 333 333 338 335 337 338 339 340 342 343 340 338 336 336 334 332 331 329 327 324 322 321 320 319 319 318 319 315 313
300 301 300 300 300 300 302 305 308 309 311 315 317 316 316 318 317 316 318 318 320 320 327 332 331 332 332 339 335 336 336 337 338 338 339 339 336 336 336 333 330 330 328 326 325 322 321 320 319 319 317 316 316 313
301 300 300 299 301 302 302 303 306 308 310 314 315 317 316 317 318 317 317 319 321 319 323 330 329 328 329 334 334 329 335 330 327 330 335 336 336 335 334 333 331 329 328 326 325 321 319 318 320 320 317 317 317 315
300 301 300 300 302 302 305 306 309 310 313 315 314 314 315 317 317 317 321 319 319 318 318 319 330 331 331 335 332 330 331 333 335 334 333 334 333 331 329 327 327 327 327 323 322 321 320 319 319 319 319 318 317 316
301 301 301 303 303 305 306 309 309 311 313 314 315 315 315 316 317 319 320 320 319 319 318 324 330 332 333 333 335 335 333 331 331 331 330 329 330 329 330 327 326 326 325 324 324 322 322 321 320 318 318 318 319 317
302 303 302 303 305 306 310 311 311 313 315 314 315 316 318 317 319 320 320 319 321 323 320 323 323 323 325 330 330 329 327 327 328 330 331 330 329 327 327 326 325 323 322 322 324 323 322 322 321 320 317 317 318 318
302 304 305 308 309 311 311 313 312 312 313 315 315 315 318 317 317 319 320 321 321 321 324 324 323 322 322 322 323 324 326 324 326 327 328 328 329 328 329 328 328 326 325 326 325 322 320 320 320 321 320 318 317 318
305 308 309 308 309 311 312 312 314 315 315 315 314 315 317 319 319 319 322 323 323 324 322 321 322 323 324 324 322 320 319 319 324 325 324 325 325 325 325 326 325 327 326 325 323 323 322 322 321 321 321 317 318 319
306 310 311 310 310 311 311 313 314 314 314 316 317 315 316 318 322 322 323 318 315 318 320 320 320 320 321 320 321 321 321 321 321 320 320 322 322 322 322 323 325 324 324 320 321 322 323 322 321 321 319 318 318 319
309 309 311 311 311 311 312 313 313 314 317 316 317 317 318 320 317 318 319 318 317 318 320 320 319 319 319 320 320 320 320 320 321 324 324 323 322 320 320 322 323 324 321 321 321 322 322 322 321 319 319 318 317 317
308 309 310 310 311 310 310 310 312 312 313 314 317 317 318 316 317 316 317 318 318 320 319 318 318 318 319 319 321 322 322 321 321 322 324 324 323 324 324 323 322 322 323 322 322 322 318 319 320 318 318 318 317 317
309 309 310 311 312 311 311 312 312 312 312 314 316 316 317 318 317 317 317 316 316 317 317 317 318 318 317 318 319 321 323 323 323 322 322 321 321 323 323 322 321 323 323 320 319 318 318 318 318 318 318 316 316 315
309 309 311 311 313 313 312 313 314 314 314 315 315 315 316 317 319 320 317 317 317 319 318 317 317 317 319 322 321 321 322 321 322 323 323 323 324 323 321 319 320 321 321 319 318 318 317 317 319 319 318 319 319 318
311 311 311 311 313 314 315 316 316 317 317 318 321 321 321 321 320 321 318 317 319 320 320 320 318 318 322 322 324 324 326 323 322 321 321 321 321 321 321 320 320 320 319 318 319 318 317 318 319 319 319 318 318 319
Wind_Speed
17 16 15 16 14 13 13 13 15 15 16 18 21 22 22 23 24 24 13 12 8 3 11 7 9 9 8 5 4 14 8 4 1 2 2 1 4 7 5 2 5 3 3 1 1 1 1 8 8 5 4 8 14 13
16 15 15 15 13 12 12 13 14 15 15 16 19 21 21 21 22 18 7 15 16 4 6 24 28 24 16 9 4 5 4 6 2 4 4 3 4 4 4 2 7 2 5 4 5 5 4 4 7 8 11 11 9 12
15 15 14 14 14 12 12 12 13 15 15 16 17 20 19 20 20 18 12 16 14 3 7 5 8 14 19 14 11 1 4 4 6 2 1 2 4 4 3 2 5 5 7 3 6 3 6 8 11 10 12 13 13 12
14 14 14 14 13 13 13 12 14 14 14 15 17 18 18 19 19 19 10 12 10 4 4 5 23 3 5 3 5 6 7 8 3 4 3 3 2 3 2 2 3 3 3 4 3 6 8 8 11 11 14 13 12 12
13 13 13 13 12 12 12 12 13 14 14 14 16 17 18 19 20 20 17 13 9 5 4 8 24 21 6 5 6 1 6 5 2 1 1 1 2 2 2 2 1 2 2 2 4 7 6 7 9 13 13 11 9 10
12 12 13 12 12 11 12 12 12 14 14 14 16 17 18 18 19 8 2 3 3 7 3 4 6 6 5 5 5 4 3 3 2 2 2 3 3 3 1 2 3 8 3 10 5 7 12 10 11 13 12 10 8 9
12 13 12 12 11 12 11 11 12 13 14 15 16 17 17 16 15 5 3 0 8 6 2 4 3 4 11 2 2 3 3 3 2 1 1 1 1 3 2 2 4 7 7 8 12 12 10 10 9 10 13 11 11 18
11 10 10 10 10 10 10 10 11 13 15 17 17 18 17 13 14 10 7 10 9 5 3 3 4 1 6 3 2 3 2 2 2 1 3 2 2 2 2 2 2 4 9 7 9 9 10 12 10 9 13 8 6 8
9 9 9 9 9 8 8 9 11 14 16 18 18 14 7 3 4 2 3 3 6 4 3 3 3 3 5 3 3 1 2 1 3 3 3 1 2 3 5 5 2 7 6 8 10 14 13 13 10 8 8 7 8 7
7 8 9 9 7 5 5 8 11 15 16 13 8 4 3 3 2 2 1 3 4 4 4 4 3 6 2 4 2 3 2 2 2 5 3 3 3 4 5 9 9 9 8 8 12 10 10 10 9 7 9 7 6 6
7 8 8 6 4 2 4 7 11 13 3 1 3 2 8 5 3 3 3 4 5 4 4 5 8 6 5 4 4 2 3 3 3 5 5 4 4 6 9 9 9 9 8 6 9 8 10 12 11 10 8 8 8 8
5 5 5 3 2 1 4 7 9 5 3 6 10 9 5 4 3 5 4 4 5 5 4 6 6 6 4 1 1 2 2 1 4 1 3 3 1 2 11 10 9 8 11 14 17 13 14 15 16 14 11 8 11 10
5 4 4 2 0 2 4 5 6 8 7 3 2 3 3 3 1 6 7 4 3 3 4 5 5 4 3 1 2 1 2 3 1 2 3 3 4 6 9 8 8 13 17 16 15 20 20 17 19 17 12 9 8 10
4 3 2 1 3 5 6 5 4 4 2 2 3 4 4 5 6 6 7 7 5 2 4 3 3 4 2 2 2 4 3 2 3 4 5 5 7 6 7 7 12 14 15 14 12 16 15 14 15 16 15 9 10 10
3 2 2 3 3 4 4 3 2 2 2 2 3 4 8 8 8 7 8 9 8 3 4 3 1 2 3 3 4 2 4 4 3 6 2 7 8 8 7 9 13 14 13 11 14 12 13 16 13 12 15 13 11 8
2 2 2 3 5 3 3 1 1 1 3 2 4 6 8 7 7 6 7 4 2 3 3 5 3 2 3 3 4 5 3 3 3 3 6 8 8 7 8 9 10 13 14 14 15 16 17 16 14 14 8 10 14 12
2 2 1 4 6 6 2 1 2 3 3 3 6 8 9 9 8 6 9 5 12 2 1 2 5 6 2 3 6 4 6 2 8 8 6 7 7 7 9 10 10 14 14 16 18 18 18 14 11 16 9 8 10 14
3 4 5 6 5 1 3 1 2 2 5 5 6 8 7 4 4 6 7 8 6 5 3 3 5 2 2 1 2 4 4 8 9 9 8 7 8 9 12 10 13 17 17 19 19 18 19 13 13 11 13 14 13 18
2 4 5 5 4 2 2 3 3 3 6 8 6 9 8 4 4 6 7 7 8 4 3 2 3 2 2 1 4 5 6 10 9 7 8 8 13 13 16 16 15 16 17 18 17 13 14 12 12 13 12 14 10 14
5 5 5 4 2 1 2 2 5 3 3 2 4 7 6 4 5 6 8 6 6 3 4 3 2 4 2 3 4 3 7 11 10 9 8 7 12 14 14 14 11 16 16 15 14 13 16 14 12 11 1 13 19 14
5 4 2 5 4 3 2 2 3 3 4 4 3 5 2 3 4 4 4 3 3 3 4 1 1 1 7 4 6 9 4 5 8 9 9 8 11 13 13 15 17 17 14 14 10 11 14 16 17 14 11 7 5 20
5 4 2 5 2 5 3 6 3 4 3 2 4 2 1 2 3 4 4 2 4 9 5 1 2 3 6 4 0 4 5 7 13 11 15 17 5 6 7 13 17 12 16 17 16 16 16 14 15 18 18 13 10 18
3 3 2 5 4 3 4 4 4 3 3 1 2 1 2 2 2 2 3 5 5 7 6 2 2 4 5 2 6 3 5 11 1 6 13 14 13 16 19 13 11 14 10 10 22 17 8 10 12 9 21 16 14 18
4 2 3 3 5 3 3 4 3 2 3 3 2 3 4 4 2 3 4 5 8 8 6 5 4 2 1 3 1 2 5 7 4 10 16 13 7 10 16 20 17 24 23 5 8 12 14 7 4 8 22 18 14 15
3 3 3 5 3 3 4 5 4 5 4 6 3 3 3 2 2 3 3 5 8 4 5 4 4 4 1 1 3 4 3 5 2 2 7 20 18 14 10 18 15 17 20 23 22 20 17 15 9 6 14 12 12 8
4 5 6 7 4 5 4 3 5 7 5 4 5 2 4 3 3 5 3 4 8 4 2 3 4 3 2 2 1 3 2 6 6 3 9 19 18 15 9 8 7 10 20 20 19 18 14 18 14 11 7 18 10 11
4 4 5 4 3 1 3 4 2 2 4 4 2 4 3 3 5 3 2 4 3 3 7 9 8 4 3 4 5 11 9 9 7 7 6 10 12 15 15 18 14 22 24 22 20 19 13 13 13 12 12 17 18 12
5 4 4 4 4 3 1 4 3 4 3 2 2 5 3 2 2 4 2 0 3 8 5 8 5 2 3 3 3 4 6 7 2 7 2 2 6 5 4 8 22 23 27 21 16 20 14 15 15 13 12 12 14 20
6 4 7 5 5 5 5 4 3 2 1 2 2 2 2 1 2 2 4 6 8 8 5 3 8 10 9 8 7 6 6 7 5 3 3 3 2 8 10 19 27 27 21 12 14 13 11 9 16 15 5 15 14 11
9 7 3 3 6 3 2 4 3 4 5 1 2 2 2 2 14 14 12 11 11 8 9 9 10 9 10 10 10 11 12 9 4 6 3 2 3 2 24 23 23 23 18 15 17 13 11 16 14 14 19 16 8 4
3 4 4 4 3 5 4 4 3 4 5 7 7 7 8 6 12 21 22 17 11 11 10 10 14 15 10 9 8 5 4 11 3 12 8 5 3 4 12 16 16 20 16 20 25 22 16 11 9 22 14 13 9 13
2 3 2 1 3 5 4 3 4 5 5 6 7 6 7 6 5 2 10 17 16 7 8 13 11 8 2 15 12 13 12 13 9 7 7 4 3 13 23 13 19 16 11 22 19 16 14 11 21 18 14 8 8 10
3 1 2 3 2 2 2 2 2 3 2 2 2 2 3 3 1 2 3 3 4 2 8 11 11 11 10 16 12 11 8 4 5 11 9 7 5 17 16 15 18 9 13 13 15 19 17 15 12 8 6 12 15 13
Wind_Direction
266 272 270 280 285 283 287 293 305 314 322 331 340 342 348 352 355 354 307 359 341 296 293 289 346 338 352 20 47 323 280 298 74 147 156 291 98 195 180 249 114 132 112 211 275 261 132 319 33 85 190 58 82 64
265 267 265 273 279 277 282 288 298 308 316 323 334 338 342 347 350 355 301 326 334 251 264 301 288 267 266 275 232 250 250 352 68 53 1 32 35 43 49 51 3 70 157 155 130 177 177 59 93 69 83 80 68 76
257 258 262 268 272 270 278 286 297 303 310 318 325 332 336 340 344 349 309 323 329 265 289 246 245 292 222 229 267 21 330 340 28 77 37 30 56 48 43 340 24 26 13 77 83 171 132 100 65 74 85 87 73 69
252 253 258 265 270 266 266 276 291 297 304 313 321 327 331 333 334 333 309 292 302 272 281 295 358 331 182 267 320 343 313 331 12 53 61 64 58 38 317 244 132 163 90 122 100 130 100 97 105 95 80 74 78 73
249 250 257 266 268 264 265 273 283 291 299 307 316 321 326 328 327 320 294 282 244 281 314 305 306 289 176 198 259 277 307 327 352 29 74 234 221 43 279 32 297 134 146 132 212 159 136 142 116 107 95 83 71 84
246 255 264 267 270 262 262 270 280 289 297 303 310 316 320 324 328 341 240 111 281 9 277 287 339 275 70 34 93 287 271 257 207 160 211 215 135 121 164 177 69 19 344 136 154 106 106 107 101 104 107 98 75 94
254 259 262 263 259 252 257 268 281 290 297 303 308 310 311 316 317 254 294 108 14 345 263 281 267 260 148 197 185 251 240 245 121 200 244 246 149 109 99 186 321 52 76 79 103 106 96 99 100 96 104 107 104 102
262 264 260 257 243 241 253 268 281 292 298 303 304 305 305 298 288 285 269 251 250 268 272 275 268 89 157 199 237 202 189 109 309 208 348 175 38 120 184 135 16 115 110 96 110 114 113 109 94 85 81 82 111 100
248 247 248 235 226 235 255 277 292 300 301 304 306 308 297 231 236 169 183 177 201 261 299 254 280 283 150 209 200 151 164 187 211 177 222 39 186 193 181 165 59 132 121 130 90 101 110 109 108 109 124 105 89 99
237 222 207 203 210 226 267 298 307 307 309 312 314 238 223 117 200 212 161 190 203 206 221 251 288 281 220 172 234 147 119 207 282 221 150 168 236 221 191 181 158 143 134 131 123 129 129 124 124 107 99 93 90 101
156 166 173 174 191 239 302 314 321 334 16 342 281 1 329 302 250 219 231 208 177 222 207 222 234 263 301 154 197 219 160 192 217 242 155 196 216 217 164 136 137 134 134 132 121 118 123 125 124 116 107 113 125 123
118 133 145 158 187 306 325 327 334 3 13 328 301 296 280 236 216 244 218 217 211 219 223 192 212 190 259 230 146 188 161 148 258 249 157 203 277 214 142 134 126 124 102 96 96 94 92 94 103 104 114 117 108 105
94 105 141 161 288 328 325 331 334 327 323 286 240 249 207 219 20 228 220 206 209 249 244 179 193 168 224 328 86 355 195 224 192 271 199 189 154 119 126 121 117 104 106 103 97 95 96 96 104 109 101 99 118 112
88 87 74 350 322 321 322 317 322 335 329 255 237 289 221 212 222 211 247 252 247 267 200 170 181 158 153 42 261 175 235 282 242 196 228 163 167 137 126 125 115 120 116 112 111 111 112 111 107 117 115 107 92 89
64 51 32 354 340 339 338 324 330 358 317 263 265 244 229 251 284 303 239 249 270 279 127 161 125 176 127 181 216 210 194 211 216 237 188 139 134 123 119 118 124 123 121 120 123 123 126 127 138 143 151 153 143 150
10 18 103 315 330 318 319 15 43 289 265 247 244 263 276 272 267 304 349 299 335 78 225 233 150 181 202 192 210 214 214 221 254 119 128 123 127 127 126 120 128 127 129 131 134 142 138 146 156 151 165 185 172 159
47 91 94 336 340 329 221 132 188 231 259 251 240 252 269 286 300 336 324 345 329 320 219 272 181 200 138 246 228 201 232 189 131 122 127 126 130 123 115 119 124 134 134 132 138 144 148 166 167 160 185 206 168 176
75 89 27 357 337 11 170 215 272 243 237 253 260 269 288 247 331 319 327 328 341 347 34 335 297 228 205 231 223 248 47 106 129 136 137 135 122 116 124 125 131 129 129 136 143 148 157 171 164 186 214 222 225 192
316 316 324 342 338 347 222 212 229 260 234 261 266 280 279 313 310 298 316 325 333 310 177 182 300 257 261 47 15 340 141 129 128 129 128 125 129 132 131 133 134 127 129 133 141 150 166 188 193 214 230 225 219 189
280 292 282 277 214 247 249 225 198 248 263 293 271 255 269 295 346 310 306 334 343 340 289 179 218 343 54 5 72 290 105 122 126 130 132 140 144 141 142 144 143 138 136 148 163 178 174 191 224 253 165 149 147 143
290 247 272 187 191 238 295 291 234 250 283 272 326 294 275 338 302 278 276 24 298 265 278 82 118 280 346 315 44 49 21 132 148 147 148 154 166 161 154 159 160 159 162 162 175 194 170 190 213 216 180 172 179 152
228 184 155 186 244 196 250 228 262 301 272 268 310 281 225 270 263 280 305 242 265 272 288 121 115 302 297 304 319 103 20 114 120 109 152 144 135 160 185 200 185 177 175 179 182 174 190 210 231 202 185 176 150 159
175 179 188 197 228 219 250 229 225 207 264 229 167 199 237 246 242 287 247 227 243 255 273 285 254 215 252 85 148 119 57 2 117 127 147 162 162 136 124 78 73 80 55 50 100 85 90 217 239 189 175 174 179 177
196 213 222 219 208 249 241 207 214 226 250 213 220 200 211 207 198 230 252 248 228 236 229 226 231 205 214 110 204 203 172 209 329 148 159 141 127 141 141 137 155 137 139 152 306 194 205 189 332 206 176 186 182 191
223 217 207 230 199 224 249 177 203 208 233 194 215 241 204 150 230 238 244 240 241 194 197 209 219 195 136 243 232 249 241 193 241 280 108 139 121 126 147 157 175 199 168 165 219 220 211 211 220 276 216 199 173 195
240 214 208 201 222 224 208 211 210 214 222 206 225 186 169 183 227 244 240 205 236 205 214 210 185 162 217 233 338 330 302 243 223 117 151 142 153 148 155 155 171 183 193 198 199 209 214 203 199 236 216 164 185 239
249 239 204 237 242 225 288 241 252 266 198 212 225 180 185 241 225 215 117 6 4 38 153 125 79 60 65 11 301 255 283 305 267 216 227 190 158 183 182 171 179 184 186 196 207 204 200 213 232 238 237 197 208 211
250 204 212 232 234 171 298 290 251 215 195 224 241 203 224 269 10 339 357 245 75 317 70 97 108 158 244 312 8 20 347 347 53 139 117 183 183 179 196 135 169 170 180 192 193 187 212 220 216 224 216 223 238 207
243 189 183 226 210 205 214 230 245 298 138 98 300 285 344 91 271 250 268 212 229 263 301 256 223 218 221 200 205 212 230 243 257 83 175 220 186 234 212 169 168 173 185 185 190 185 205 227 239 220 248 64 78 93
248 253 215 277 217 242 229 182 172 250 282 128 100 306 272 269 256 241 229 242 251 236 243 260 264 244 240 226 191 212 224 194 184 177 172 246 294 88 149 161 164 178 172 181 195 194 216 184 186 160 138 158 151 114
240 200 194 206 259 276 269 286 283 217 222 239 208 211 232 238 237 220 225 235 233 237 240 252 261 265 253 237 223 195 146 54 170 196 183 217 266 41 155 168 185 144 181 191 174 178 183 181 167 133 141 147 142 126
244 247 326 43 280 283 285 263 266 263 256 251 248 245 259 252 239 222 194 210 215 214 255 254 270 280 306 96 110 116 146 161 195 184 176 146 150 162 172 179 218 241 178 179 181 169 160 171 141 154 165 175 157 181
235 263 296 282 272 336 317 285 261 273 243 282 319 338 287 319 293 11 48 257 301 323 285 272 221 269 127 116 121 107 93 81 184 192 216 226 239 184 186 184 178 211 169 171 187 156 160 168 149 95 183 217 235 219